Home > Weather > Ballarat > Past weeks

Flag for Australia Past Weather in Ballarat, Victoria, Australia — Yesterday and Last 2 Weeks

Now
47 °F

Cool.


Feels Like: 42 °F
Forecast: 43 / 49 °F
Wind: 13 mph from Northwest

Location: Sheoaks Aws

Current Time: Jul 28, 2016 at 5:16:48 AM

Latest Report: Jul 28, 2016 at 3:00 AM


Visibility: N/A

Pressure: 30.17 "Hg

Humidity: 84%

Dew Point: 43 °F

Location of BallaratLocation

Past Weather in Ballarat — Graph

°F

Ballarat Temperature Yesterday

Maximum temperature yesterday: 49 °F (at 3:00 PM)
Minimum temperature yesterday: 45 °F (at 2:00 AM)
Average temperature yesterday: 47 °F

High & Low Weather Summary for the Past Weeks

 TemperatureHumidityPressure
High62 °F (Jul 18, 12:00 PM)98% (Jul 17, 9:00 AM)30.52 "Hg (Jul 17, 9:00 AM)
Low30 °F (Jul 17, 8:00 AM)48% (Jul 17, 2:00 PM)29.29 "Hg (Jul 22, 11:00 PM)
Average48 °F78%30.01 "Hg
* Reported Jul 13 3:00 AM — Jul 28 3:00 AM, Ballarat, Weather by CustomWeather, © 2016

Note: Actual official high and low records may vary slightly from our data, if they occured in-between our weather recording intervals... More about our weather records

Advertising

Ballarat Weather History for the Previous 24 Hours

Scroll right to see more
 ConditionsComfort  
Time TempWeatherWind HumidityBarometerVisibility
3:00 AM
Thu, Jul 28
47 °FCool.13 mph84%30.17 "HgN/A
2:00 AM48 °FCool.15 mph80%30.18 "HgN/A
12:00 AM47 °FCool.15 mph81%30.18 "HgN/A
11:00 PM
Wed, Jul 27
47 °FCool.12 mph81%30.17 "HgN/A
9:00 PM46 °FCool.13 mph83%30.18 "HgN/A
8:00 PM46 °FCool.12 mph76%30.17 "HgN/A
6:00 PM46 °FCool.13 mph75%30.11 "HgN/A
5:00 PM47 °FCool.14 mph77%30.10 "HgN/A
3:00 PM49 °FCool.15 mph70%30.06 "HgN/A
2:00 PM48 °FCool.13 mph75%30.04 "HgN/A
12:00 PM48 °FCool.13 mph65%30.02 "HgN/A
11:00 AM47 °FCool.9 mph72%30.00 "HgN/A
9:00 AM46 °FCool.9 mph89%29.94 "HgN/A
8:00 AM46 °FCool.10 mph94%29.88 "HgN/A
6:00 AM47 °FCool.14 mph90%29.78 "HgN/A
5:00 AM47 °FCool.15 mph87%29.75 "HgN/A
Weather by CustomWeather, © 2016

See weather overviewHow to use our weather pages